Location: Ballingbuur
(53.0000°N, 5.7667°E)
Time: 13:34:42
(UTC+00:00)

Cosmos 2366 rocket - Visible Passes

Search period start: 20 April 2021 00:00
Search period end: 30 April 2021 00:00
Orbit: 954 x 998 km, 82.9° (Epoch: 19 April)

Date Brightness Start Highest point End Pass type
(mag) Time Alt. Az. Time Alt. Az. Time Alt. Az.
20 Apr 4.1 00:41:05 10° N 00:47:15 69° ENE 00:49:52 36° SSE visible
20 Apr 5.1 02:27:14 10° NNW 02:32:07 25° W 02:34:31 20° WSW visible
20 Apr 5.7 23:21:45 10° N 23:26:44 25° ENE 23:30:28 15° ESE visible
21 Apr 3.9 01:06:41 10° NNW 01:12:50 75° W 01:15:08 41° S visible
21 Apr 5.6 02:53:47 10° NW 02:57:12 15° WNW 02:59:48 12° WSW visible
21 Apr 5.0 23:47:01 10° N 23:52:45 38° ENE 23:55:45 24° ESE visible
22 Apr 4.3 01:32:27 10° NNW 01:38:17 46° W 01:40:25 34° SW visible
22 Apr 6.2 22:28:24 10° NNE 22:31:44 15° NE 22:35:03 10° E visible
23 Apr 4.3 00:12:26 10° N 00:18:33 61° ENE 00:21:03 36° SE visible
23 Apr 5.0 01:58:26 10° NNW 02:03:33 29° W 02:05:43 23° WSW visible
23 Apr 5.7 22:53:13 10° N 22:57:57 23° ENE 23:01:42 13° ESE visible
24 Apr 3.9 00:38:01 10° NNW 00:44:12 84° W 00:46:23 43° S visible
24 Apr 5.5 02:24:48 10° NW 02:28:40 18° WNW 02:31:02 14° WSW visible
24 Apr 5.1 23:18:25 10° N 23:24:00 35° ENE 23:27:02 22° ESE visible
25 Apr 4.2 01:03:44 10° NNW 01:09:40 52° W 01:11:42 37° SW visible
25 Apr 6.0 02:53:25 10° WNW 02:53:36 10° WNW 02:53:49 10° WNW visible
25 Apr 6.2 22:00:03 10° NNE 22:02:52 13° NE 22:05:41 10° ENE visible
25 Apr 4.4 23:43:48 10° N 23:49:51 55° ENE 23:52:23 34° SE visible
26 Apr 4.9 01:29:38 10° NNW 01:34:59 32° W 01:37:03 26° WSW visible
26 Apr 5.8 22:24:42 10° N 22:29:09 20° ENE 22:33:04 12° E visible
27 Apr 3.9 00:09:20 10° N 00:15:32 87° E 00:17:44 43° SSE visible
27 Apr 5.5 01:55:53 10° NW 02:00:09 20° WNW 02:02:23 16° WSW visible
27 Apr 5.2 22:49:49 10° N 22:55:14 31° ENE 22:58:25 20° ESE visible
28 Apr 4.1 00:35:01 10° NNW 00:41:03 59° W 00:43:06 40° SSW visible
28 Apr 5.9 02:23:07 10° NW 02:25:08 12° WNW 02:27:08 10° W visible
28 Apr 6.2 21:31:51 10° NNE 21:34:01 12° NE 21:36:12 10° ENE visible
28 Apr 4.6 23:15:10 10° N 23:21:08 49° ENE 23:23:48 30° SE visible
29 Apr 4.7 01:00:52 10° NNW 01:06:24 36° W 01:08:28 29° SW visible
29 Apr 5.9 21:56:12 10° NNE 22:00:21 18° NE 22:04:28 10° E visible
29 Apr 4.0 23:40:41 10° N 23:46:52 78° E 23:49:11 41° SSE visible
